Regional Weather Roundup
Issued by NWS Newport/Morehead, NC

Current Version | Previous Version | Text Only | Print | Product List | Glossary On
Versions: 1 2 3 4 5 6 7 8 9 10 11 12 13 14 15 16 17 18 19 20 21 22 23 24 25 26 27 28 29 30 31 32 33 34 35 36 37 38 39 40 41 42 43 44 45 46 47 48 49 50
000 ASUS42 KMHX 200213 RWRMHX WEATHER ROUNDUP FOR EASTERN NORTH CAROLINA NATIONAL WEATHER SERVICE NEWPORT/MOREHEAD CITY NC 900 PM EST MON FEB 19 2018 NOTE: "FAIR" INDICATES FEW OR NO CLOUDS BELOW 12,000 FEET WITH NO SIGNIFICANT WEATHER AND/OR OBSTRUCTIONS TO VISIBILITY NCZ015>017-031-032-045>047-102-103-200300- NORTH COAST CITY SKY/WX TMP DP RH WIND PRES REMARKS EDENTON CLOUDY 59 57 94 CALM 30.42S ELIZABETH CITY CLOUDY 62 61 96 SE6 30.41S KITTY HAWK CLOUDY N/A N/A N/A CALM 30.42S MANTEO CLOUDY 60 58 94 S9 30.44R $$ NCZ045>047-081-094-103-104-200300- CENTRAL COAST CITY SKY/WX TMP DP RH WIND PRES REMARKS FRISCO CLOUDY 64 62 93 S7 30.44R $$ NCZ095-097-098-100-101-200300- SOUTHERN COAST CITY SKY/WX TMP DP RH WIND PRES REMARKS BEAUFORT FAIR 66 63 90 S9 30.43R CEDAR ISLAND NOT AVBL JACKSONVILLE CLOUDY 66 65 96 S3 30.41S PINEY ISLAND NOT AVBL WILMINGTON FOG 65 64 97 CALM 30.41S VSB 3/4 $$ NCZ011>013-027>030-043-044-078>080-089-090>093-098-200300- COASTAL PLAIN CITY SKY/WX TMP DP RH WIND PRES REMARKS AHOSKIE CLOUDY 50 50 100 CALM 30.42R FOG CLINTON CLOUDY 58 56 91 CALM 30.42R ELIZABETHTOWN NOT AVBL GOLDSBORO CLOUDY 55 51 89 CALM 30.40S GREENVILLE DRIZZLE 55 55 100 CALM 30.42R HAVELOCK NOT AVBL KENANSVILLE LGT RAIN 61 61 100 CALM 30.41S FOG KINSTON RAIN 57 57 100 CALM 30.42S NEW BERN CLOUDY 67 64 90 S8 30.42S RICHLANDS CLOUDY 66 66 100 CALM 30.42S ROCKY MOUNT CLOUDY 53 50 89 CALM 30.42R WASHINGTON CLOUDY 60 57 89 CALM 30.42S WHITEVILLE FOG 61 61 98 CALM 30.39S VSB 1 $$ AMZ130-135-150-152-154-156-158-170-250-252-270-ANZ085-086-088-633-658-670-200300- MARINE OBSERVATIONS STATION/POSITION TIME TEMP WIND PRES WAVE SWELL AIR SEA DIR/SP/G HT/PER HT/PER (UTC) (F) (DEG/KT/KT) (MB) (FT/S) (FT/S) CHESAPEAKE LIGHT NOT AVBL 64 E VA BEACH 0150 55 50 180/ 12/ 12 1030.7 3/ 6 2/ 8 DUCK 0142 56 44 170/ 10/ 12 1029.7 2 E DUCK 0200 45 N/A 3/ 5 OREGON INLET 0142 60 48 150/ 7/ 10 1030.4 13E OREGON INLT 0148 45 N/A 4/ 6 3/ 6 HATTERAS CG 0142 64 56 170/ 7/ 9 1030.5 DIAMOND BUOY 0150 71 73 160/ 16/ 19 1031.1 4/ 9 2/ 9 CAPE LOOKOUT 0200 170/ 4/ 5 1030.8 BEAUFORT LAB 0142 62 55 170/ 9/ 11 1030.4 30 SE NEW RVR IN 0108 70 67 170/ 10/ 12 1029.8 30 SE NEW RVR IN 0200 67 N/A 4/ 6 27 SE WRIGHTSVLE NOT AVBL 5 SE WRIGHTSVLE 0108 60 54 160/ 2/ 6 1029.3 225 S CAPE HAT 0150 71 72 110/ 14/ 16 1030.7 4/ 9 3/ 9 41 SE CHARLESTON 0150 70 68 140/ 6/ 6 1028.5 3/ 8 3/ 8 $$

USA.gov is the U.S. government's official web portal to all federal, state and local government web resources and services.